Flag for Germany Weather past 2 weeks in Fürstenwalde/Spree, Brandenburg, Germany

Now
31 °F

Passing clouds.


Feels Like: 27 °F
Forecast: 37 / 44 °F
Wind: 3 mph from South

Location: Lindenberg

Current Time: Mar 1, 2015 at 6:36:54 AM

Latest Report: Mar 1, 2015 at 6:00 AM


Visibility: 9 mi

Pressure: 29.83 "Hg

Humidity: 89%

Dew point: 28 °F

Location of Fürstenwalde/SpreeLocation

Historic Weather in Fürstenwalde/Spree — Graph

°F

Fürstenwalde/Spree temperature yesterday

Maximum temperature yesterday: 45 °F (at 3:00 PM)
Minimum temperature yesterday: 31 °F (at 11:00 PM)
Average temperature yesterday: 38 °F

Past Weeks' High & Low Weather Summary

 TemperatureHumidityPressure
High50 °F (Feb 21, 3:00 PM)98% (Feb 18, 7:00 AM)30.73 "Hg (Feb 18, 7:00 AM)
Low26 °F (Feb 20, 5:00 AM)48% (Feb 21, 12:00 PM)29.38 "Hg (Feb 21, 2:00 PM)
Average36 °F81%30.03 "Hg
* Reported Feb 14 5:00 AM — Mar 1 5:00 AM, Fürstenwalde/Spree, Weather by CustomWeather, © 2015

Note: Actual official high and low records may vary slightly from our data, if they occured in-between our weather recording intervals... More about our weather records

Advertising

Fürstenwalde/Spree weather history for previous 24 hours

 ConditionsComfort  
Time TempWeatherWind HumidityBarometerVisibility
5:00 AM
Sun, Mar 1
31 °FPassing clouds.3 mph92%29.85 "Hg7 mi
3:00 AM30 °FClear.3 mph93%29.92 "Hg12 mi
2:00 AM30 °FClear.3 mph92%29.95 "Hg12 mi
1:00 AM30 °FClear.3 mph88%29.97 "Hg19 mi
12:00 AM31 °FClear.3 mph85%29.99 "Hg19 mi
11:00 PM
Sat, Feb 28
31 °FClear.3 mph82%30.02 "Hg19 mi
9:00 PM33 °FClear.3 mph77%30.06 "Hg22 mi
8:00 PM35 °FClear.3 mph73%30.07 "Hg22 mi
7:00 PM37 °FPassing clouds.3 mph63%30.08 "Hg22 mi
6:00 PM39 °FPassing clouds.2 mph60%30.07 "Hg19 mi
5:00 PM43 °FPassing clouds.3 mph52%30.07 "Hg19 mi
4:00 PM43 °FScattered clouds.5 mph53%30.08 "Hg22 mi
3:00 PM45 °FScattered clouds.5 mph52%30.08 "Hg22 mi
2:00 PM44 °FScattered clouds.5 mph54%30.09 "Hg19 mi
1:00 PM42 °FPartly sunny.5 mph61%30.10 "Hg19 mi
12:00 PM41 °FOvercast.5 mph67%30.12 "Hg16 mi
11:00 AM40 °FOvercast.7 mph76%30.11 "Hg13 mi
10:00 AM38 °FOvercast.6 mph89%30.11 "Hg9 mi
9:00 AM36 °FLow clouds.7 mph93%30.11 "Hg5 mi
8:00 AM37 °FDrizzle. Low clouds.6 mph96%30.09 "Hg2 mi
7:00 AM37 °FLow clouds.6 mph95%30.07 "Hg4 mi
6:00 AM37 °FLight rain. Low clouds.3 mph95%30.05 "Hg5 mi
Weather by CustomWeather, © 2015

See weather overviewHow to use our weather pages